Portada
METAR-TAF:

METAR-TAF

Aeroports :

Erwin, Carolina del Nord, Estats Units d'Amèrica

latitud: 35-22-43N, longitud: 078-44-01W, altitud: 60 m

Observació

L'informe es va fer fa 29 minuts, a les 13:35 UTC
Vent 8 kt del Sud-Oest
Temperatura 25°C
Humitat 61%
Pressió 1016 hPa
Visibilitat: 16.1 km
Cel clar

METAR: KHRJ 031335Z AUTO 23008KT 10SM CLR 25/17 A2999 RMK AO2 T02480173

Hora: 10:04 (14:04 UTC)


TAF: manca

Observacions i pronòstics meteorològics de més de 4000 aeroports (METAR i TAF).

Les estacions disponibles són els punts grocs i vermells al mapa.

Posi el ratolí al punt desitjat per veure el nom de l'estació.

Feu clic per veure les observacions i els pronòstics meteorològics.

Per canviar el mapa: feu clic els botons verds amb una creu de color negre per apropar; al botó verd amb un guió per allunyar la imatge; o en les fletxes verdes per a mapes adjacents.


METAR-TAF: